GPS BIIRM-2 (PRN 31)

Last updated on Wed Aug 19 2026 00:03:21 GMT+0000 (Coordinated Universal Time)

1 29486U 06042A 26229.83167999 -.00000001 00000+0 00000+0 0 9994 2 29486 54.7138 148.8910 0108122 56.2177 315.4764 2.00566503145638
UTC large
Height (km)
Speed (km/s)
/
Latitude / Longitude
Inclination (degrees)
Orbital Period (minutes)
Azimuth
Elevation
Range (km)
Doppler Factor

Next 0 passes for location: London (51.5072 / 0.1276)

No passes found over London.
GPS BIIRM-2 (PRN 31)